Year,Month,Day,Hour,Minute,Value (Times are PST for temperature in C)
2013,07,29,00,00,14.60
2013,07,29,00,01,14.60
2013,07,29,00,02,14.60
2013,07,29,00,03,14.60
2013,07,29,00,04,14.60
2013,07,29,00,05,14.60
2013,07,29,00,06,14.60
2013,07,29,00,07,14.60
2013,07,29,00,08,14.60
2013,07,29,00,09,14.60
2013,07,29,00,10,14.60
2013,07,29,00,11,14.60
2013,07,29,00,12,14.70
2013,07,29,00,13,14.70
2013,07,29,00,14,14.70
2013,07,29,00,15,14.70
2013,07,29,00,16,14.70
2013,07,29,00,17,14.70
2013,07,29,00,18,14.70
2013,07,29,00,19,14.70
2013,07,29,00,20,14.70
2013,07,29,00,21,14.70
2013,07,29,00,22,14.70
2013,07,29,00,23,14.70
2013,07,29,00,24,14.80
2013,07,29,00,25,14.80
2013,07,29,00,26,14.80
2013,07,29,00,27,14.80
2013,07,29,00,28,14.80
2013,07,29,00,29,14.80
2013,07,29,00,30,14.80
2013,07,29,00,31,14.80
2013,07,29,00,32,14.80
2013,07,29,00,33,14.80
2013,07,29,00,34,14.70
2013,07,29,00,35,14.70
2013,07,29,00,36,14.70
2013,07,29,00,37,14.70
2013,07,29,00,38,14.70
2013,07,29,00,39,14.70
2013,07,29,00,40,14.70
2013,07,29,00,41,14.70
2013,07,29,00,42,14.70
2013,07,29,00,43,14.70
2013,07,29,00,44,14.70
2013,07,29,00,45,14.70
2013,07,29,00,46,14.70
2013,07,29,00,47,14.70
2013,07,29,00,48,14.70
2013,07,29,00,49,14.70
2013,07,29,00,50,14.70
2013,07,29,00,51,14.70
2013,07,29,00,52,14.60
2013,07,29,00,53,14.60
2013,07,29,00,54,14.60
2013,07,29,00,55,14.60
2013,07,29,00,56,14.50
2013,07,29,00,57,14.50
2013,07,29,00,58,14.50
2013,07,29,00,59,14.50
2013,07,29,01,00,14.50
2013,07,29,01,01,14.40
2013,07,29,01,02,14.40
2013,07,29,01,03,14.40
2013,07,29,01,04,14.40
2013,07,29,01,05,14.30
2013,07,29,01,06,14.30
2013,07,29,01,07,14.30
2013,07,29,01,08,14.30
2013,07,29,01,09,14.30
2013,07,29,01,10,14.30
2013,07,29,01,11,14.20
2013,07,29,01,12,14.20
2013,07,29,01,13,14.20
2013,07,29,01,14,14.20
2013,07,29,01,15,14.20
2013,07,29,01,16,14.20
2013,07,29,01,17,14.20
2013,07,29,01,18,14.20
2013,07,29,01,19,14.20
2013,07,29,01,20,14.20
2013,07,29,01,21,14.10
2013,07,29,01,22,14.10
2013,07,29,01,23,14.10
2013,07,29,01,24,14.00
2013,07,29,01,25,14.00
2013,07,29,01,26,14.00
2013,07,29,01,27,14.00
2013,07,29,01,28,13.90
2013,07,29,01,29,13.90
2013,07,29,01,30,13.90
2013,07,29,01,31,13.90
2013,07,29,01,32,13.80
2013,07,29,01,33,13.80
2013,07,29,01,34,13.80
2013,07,29,01,35,13.80
2013,07,29,01,36,13.80
2013,07,29,01,37,13.80
2013,07,29,01,38,13.80
2013,07,29,01,39,13.80
2013,07,29,01,40,13.80
2013,07,29,01,41,13.80
2013,07,29,01,42,13.70
2013,07,29,01,43,13.70
2013,07,29,01,44,13.70
2013,07,29,01,45,13.70
2013,07,29,01,46,13.70
2013,07,29,01,47,13.70
2013,07,29,01,48,13.70
2013,07,29,01,49,13.70
2013,07,29,01,50,13.70
2013,07,29,01,51,13.70
2013,07,29,01,52,13.70
2013,07,29,01,53,13.70
2013,07,29,01,54,13.70
2013,07,29,01,55,13.70
2013,07,29,01,56,13.70
2013,07,29,01,57,13.70
2013,07,29,01,58,13.70
2013,07,29,01,59,13.60
2013,07,29,02,00,13.60
2013,07,29,02,01,13.60
2013,07,29,02,02,13.60
2013,07,29,02,03,13.60
2013,07,29,02,04,13.60
2013,07,29,02,05,13.60
2013,07,29,02,06,13.60
2013,07,29,02,07,13.50
2013,07,29,02,08,13.50
2013,07,29,02,09,13.50
2013,07,29,02,10,13.50
2013,07,29,02,11,13.50
2013,07,29,02,12,13.50
2013,07,29,02,13,13.50
2013,07,29,02,14,13.50
2013,07,29,02,15,13.50
2013,07,29,02,16,13.50
2013,07,29,02,17,13.50
2013,07,29,02,18,13.50
2013,07,29,02,19,13.50
2013,07,29,02,20,13.50
2013,07,29,02,21,13.40
2013,07,29,02,22,13.40
2013,07,29,02,23,13.40
2013,07,29,02,24,13.40
2013,07,29,02,25,13.40
2013,07,29,02,26,13.30
2013,07,29,02,27,13.30
2013,07,29,02,28,13.30
2013,07,29,02,29,13.30
2013,07,29,02,30,13.30
2013,07,29,02,31,13.30
2013,07,29,02,32,13.30
2013,07,29,02,33,13.30
2013,07,29,02,34,13.20
2013,07,29,02,35,13.20
2013,07,29,02,36,13.20
2013,07,29,02,37,13.20
2013,07,29,02,38,13.20
2013,07,29,02,39,13.10
2013,07,29,02,40,13.10
2013,07,29,02,41,13.00
2013,07,29,02,42,13.00
2013,07,29,02,43,13.00
2013,07,29,02,44,13.00
2013,07,29,02,45,12.90
2013,07,29,02,46,12.90
2013,07,29,02,47,12.90
2013,07,29,02,48,12.80
2013,07,29,02,49,12.80
2013,07,29,02,50,12.80
2013,07,29,02,51,12.80
2013,07,29,02,52,12.80
2013,07,29,02,53,12.80
2013,07,29,02,54,12.80
2013,07,29,02,55,12.70
2013,07,29,02,56,12.70
2013,07,29,02,57,12.60
2013,07,29,02,58,12.60
2013,07,29,02,59,12.60
2013,07,29,03,00,12.60
2013,07,29,03,01,12.50
2013,07,29,03,02,12.50
2013,07,29,03,03,12.50
2013,07,29,03,04,12.50
2013,07,29,03,05,12.40
2013,07,29,03,06,12.40
2013,07,29,03,07,12.40
2013,07,29,03,08,12.40
2013,07,29,03,09,12.30
2013,07,29,03,10,12.30
2013,07,29,03,11,12.30
2013,07,29,03,12,12.30
2013,07,29,03,13,12.30
2013,07,29,03,14,12.20
2013,07,29,03,15,12.20
2013,07,29,03,16,12.20
2013,07,29,03,17,12.20
2013,07,29,03,18,12.10
2013,07,29,03,19,12.10
2013,07,29,03,20,12.10
2013,07,29,03,21,12.00
2013,07,29,03,22,12.00
2013,07,29,03,23,12.00
2013,07,29,03,24,11.90
2013,07,29,03,25,11.90
2013,07,29,03,26,11.90
2013,07,29,03,27,11.90
2013,07,29,03,28,11.80
2013,07,29,03,29,11.80
2013,07,29,03,30,11.80
2013,07,29,03,31,11.80
2013,07,29,03,32,11.80
2013,07,29,03,33,11.80
2013,07,29,03,34,11.80
2013,07,29,03,35,11.70
2013,07,29,03,36,11.70
2013,07,29,03,37,11.70
2013,07,29,03,38,11.70
2013,07,29,03,39,11.70
2013,07,29,03,40,11.70
2013,07,29,03,41,11.70
2013,07,29,03,42,11.70
2013,07,29,03,43,11.60
2013,07,29,03,44,11.60
2013,07,29,03,45,11.60
2013,07,29,03,46,11.60
2013,07,29,03,47,11.60
2013,07,29,03,48,11.60
2013,07,29,03,49,11.60
2013,07,29,03,50,11.60
2013,07,29,03,51,11.60
2013,07,29,03,52,11.40
2013,07,29,03,53,11.40
2013,07,29,03,54,11.40
2013,07,29,03,55,11.40
2013,07,29,03,56,11.40
2013,07,29,03,57,11.40
2013,07,29,03,58,11.40
2013,07,29,03,59,11.40
2013,07,29,04,00,11.40
2013,07,29,04,01,11.40
2013,07,29,04,02,11.40
2013,07,29,04,03,11.40
2013,07,29,04,04,11.30
2013,07,29,04,05,11.30
2013,07,29,04,06,11.30
2013,07,29,04,07,11.30
2013,07,29,04,08,11.30
2013,07,29,04,09,11.30
2013,07,29,04,10,11.30
2013,07,29,04,11,11.30
2013,07,29,04,12,11.20
2013,07,29,04,13,11.20
2013,07,29,04,14,11.20
2013,07,29,04,15,11.20
2013,07,29,04,16,11.20
2013,07,29,04,17,11.20
2013,07,29,04,18,11.20
2013,07,29,04,19,11.20
2013,07,29,04,20,11.20
2013,07,29,04,21,11.10
2013,07,29,04,22,11.10
2013,07,29,04,23,11.10
2013,07,29,04,24,11.10
2013,07,29,04,25,11.10
2013,07,29,04,26,11.10
2013,07,29,04,27,11.10
2013,07,29,04,28,11.10
2013,07,29,04,29,11.10
2013,07,29,04,30,11.10
2013,07,29,04,31,11.10
2013,07,29,04,32,11.10
2013,07,29,04,33,11.10
2013,07,29,04,34,11.10
2013,07,29,04,35,11.10
2013,07,29,04,36,11.10
2013,07,29,04,37,11.10
2013,07,29,04,38,11.10
2013,07,29,04,39,11.10
2013,07,29,04,40,11.10
2013,07,29,04,41,11.10
2013,07,29,04,42,11.10
2013,07,29,04,43,11.10
2013,07,29,04,44,11.10
2013,07,29,04,45,11.10
2013,07,29,04,46,11.10
2013,07,29,04,47,11.10
2013,07,29,04,48,11.10
2013,07,29,04,49,11.10
2013,07,29,04,50,11.00
2013,07,29,04,51,10.90
2013,07,29,04,52,10.90
2013,07,29,04,53,10.90
2013,07,29,04,54,10.90
2013,07,29,04,55,10.90
2013,07,29,04,56,10.90
2013,07,29,04,57,10.90
2013,07,29,04,58,10.90
2013,07,29,04,59,10.90
2013,07,29,05,00,10.90
2013,07,29,05,01,10.90
2013,07,29,05,02,10.90
2013,07,29,05,03,10.90
2013,07,29,05,04,10.90
2013,07,29,05,05,10.90
2013,07,29,05,06,10.90
2013,07,29,05,13,10.90
2013,07,29,05,14,10.90
2013,07,29,05,15,10.90
2013,07,29,05,16,10.90
2013,07,29,05,17,10.90
2013,07,29,05,18,10.90
2013,07,29,05,19,10.90
2013,07,29,05,20,10.90
2013,07,29,05,21,10.90
2013,07,29,05,22,10.90
2013,07,29,05,23,10.80
2013,07,29,05,24,10.80
2013,07,29,05,25,10.80
2013,07,29,05,26,10.80
2013,07,29,05,27,10.80
2013,07,29,05,28,10.80
2013,07,29,05,29,10.90
2013,07,29,05,30,10.90
2013,07,29,05,31,10.90
2013,07,29,05,32,10.80
2013,07,29,05,33,10.80
2013,07,29,05,34,10.80
2013,07,29,05,35,10.80
2013,07,29,05,36,10.80
2013,07,29,05,37,10.90
2013,07,29,05,38,10.90
2013,07,29,05,39,10.90
2013,07,29,05,40,10.90
2013,07,29,05,41,10.90
2013,07,29,05,42,10.90
2013,07,29,05,43,10.90
2013,07,29,05,44,10.90
2013,07,29,05,45,10.90
2013,07,29,05,46,10.90
2013,07,29,05,47,10.90
2013,07,29,05,48,10.90
2013,07,29,05,49,10.90
2013,07,29,05,50,10.90
2013,07,29,05,51,10.90
2013,07,29,05,52,10.90
2013,07,29,05,53,10.90
2013,07,29,05,54,10.90
2013,07,29,05,55,10.90
2013,07,29,05,56,10.90
2013,07,29,05,57,10.90
2013,07,29,05,58,10.90
2013,07,29,05,59,10.90
2013,07,29,06,00,10.90
2013,07,29,06,01,10.90
2013,07,29,06,02,10.90
2013,07,29,06,03,10.90
2013,07,29,06,04,10.90
2013,07,29,06,05,10.90
2013,07,29,06,06,10.90
2013,07,29,06,07,10.90
2013,07,29,06,08,10.90
2013,07,29,06,09,10.90
2013,07,29,06,10,10.90
2013,07,29,06,11,10.90
2013,07,29,06,12,10.90
2013,07,29,06,13,10.90
2013,07,29,06,14,10.90
2013,07,29,06,15,10.90
2013,07,29,06,16,10.90
2013,07,29,06,17,10.90
2013,07,29,06,18,11.00
2013,07,29,06,19,11.10
2013,07,29,06,20,11.10
2013,07,29,06,21,11.10
2013,07,29,06,22,11.10
2013,07,29,06,23,11.10
2013,07,29,06,24,11.10
2013,07,29,06,25,11.10
2013,07,29,06,26,11.10
2013,07,29,06,27,11.10
2013,07,29,06,28,11.10
2013,07,29,06,29,11.10
2013,07,29,06,30,11.10
2013,07,29,06,31,11.10
2013,07,29,06,32,11.10
2013,07,29,06,33,11.10
2013,07,29,06,34,11.10
2013,07,29,06,35,11.20
2013,07,29,06,36,11.20
2013,07,29,06,37,11.20
2013,07,29,06,38,11.30
2013,07,29,06,39,11.40
2013,07,29,06,40,11.40
2013,07,29,06,41,11.40
2013,07,29,06,42,11.50
2013,07,29,06,43,11.60
2013,07,29,06,44,11.60
2013,07,29,06,45,11.70
2013,07,29,06,46,11.80
2013,07,29,06,47,11.80
2013,07,29,06,48,11.90
2013,07,29,06,49,12.00
2013,07,29,06,50,12.10
2013,07,29,06,51,12.20
2013,07,29,06,52,12.20
2013,07,29,06,53,12.30
2013,07,29,06,54,12.30
2013,07,29,06,55,12.40
2013,07,29,06,56,12.50
2013,07,29,06,57,12.60
2013,07,29,06,58,12.60
2013,07,29,06,59,12.70
2013,07,29,07,00,12.80
2013,07,29,07,01,12.80
2013,07,29,07,02,12.80
2013,07,29,07,03,12.80
2013,07,29,07,04,12.80
2013,07,29,07,05,12.90
2013,07,29,07,06,13.00
2013,07,29,07,07,13.00
2013,07,29,07,08,13.10
2013,07,29,07,09,13.10
2013,07,29,07,10,13.20
2013,07,29,07,11,13.30
2013,07,29,07,12,13.30
2013,07,29,07,13,13.30
2013,07,29,07,14,13.40
2013,07,29,07,15,13.40
2013,07,29,07,16,13.40
2013,07,29,07,17,13.50
2013,07,29,07,18,13.50
2013,07,29,07,19,13.60
2013,07,29,07,20,13.70
2013,07,29,07,21,13.70
2013,07,29,07,22,13.80
2013,07,29,07,23,13.80
2013,07,29,07,24,13.80
2013,07,29,07,25,13.80
2013,07,29,07,26,13.80
2013,07,29,07,27,13.90
2013,07,29,07,28,13.90
2013,07,29,07,29,14.00
2013,07,29,07,30,14.10
2013,07,29,07,31,14.20
2013,07,29,07,32,14.20
2013,07,29,07,33,14.20
2013,07,29,07,34,14.20
2013,07,29,07,35,14.20
2013,07,29,07,36,14.10
2013,07,29,07,37,14.10
2013,07,29,07,38,14.00
2013,07,29,07,39,14.00
2013,07,29,07,40,14.00
2013,07,29,07,41,14.10
2013,07,29,07,42,14.10
2013,07,29,07,43,14.20
2013,07,29,07,44,14.30
2013,07,29,07,45,14.30
2013,07,29,07,46,14.40
2013,07,29,07,47,14.40
2013,07,29,07,48,14.40
2013,07,29,07,49,14.30
2013,07,29,07,50,14.30
2013,07,29,07,51,14.40
2013,07,29,07,52,14.40
2013,07,29,07,53,14.50
2013,07,29,07,54,14.60
2013,07,29,07,55,14.60
2013,07,29,07,56,14.70
2013,07,29,07,57,14.80
2013,07,29,07,58,14.80
2013,07,29,07,59,14.80
2013,07,29,08,00,14.90
2013,07,29,08,01,14.90
2013,07,29,08,02,14.90
2013,07,29,08,03,15.00
2013,07,29,08,04,15.00
2013,07,29,08,05,15.10
2013,07,29,08,06,15.20
2013,07,29,08,07,15.20
2013,07,29,08,08,15.30
2013,07,29,08,09,15.40
2013,07,29,08,10,15.40
2013,07,29,08,11,15.40
2013,07,29,08,12,15.40
2013,07,29,08,13,15.50
2013,07,29,08,14,15.50
2013,07,29,08,15,15.50
2013,07,29,08,16,15.50
2013,07,29,08,17,15.50
2013,07,29,08,18,15.50
2013,07,29,08,19,15.40
2013,07,29,08,20,15.30
2013,07,29,08,21,15.20
2013,07,29,08,22,15.10
2013,07,29,08,23,14.90
2013,07,29,08,24,14.80
2013,07,29,08,25,14.70
2013,07,29,08,26,14.50
2013,07,29,08,27,14.40
2013,07,29,08,28,14.20
2013,07,29,08,29,14.20
2013,07,29,08,30,14.10
2013,07,29,08,31,14.00
2013,07,29,08,32,14.00
2013,07,29,08,33,13.90
2013,07,29,08,34,13.90
2013,07,29,08,35,13.90
2013,07,29,08,36,13.90
2013,07,29,08,37,13.90
2013,07,29,08,38,13.90
2013,07,29,08,39,14.00
2013,07,29,08,40,14.10
2013,07,29,08,41,14.20
2013,07,29,08,42,14.20
2013,07,29,08,43,14.20
2013,07,29,08,44,14.20
2013,07,29,08,45,14.20
2013,07,29,08,46,14.40
2013,07,29,08,47,14.50
2013,07,29,08,48,14.50
2013,07,29,08,49,14.50
2013,07,29,08,50,14.60
2013,07,29,08,51,14.70
2013,07,29,08,52,14.80
2013,07,29,08,53,14.80
2013,07,29,08,54,14.90
2013,07,29,08,55,15.00
2013,07,29,08,56,15.10
2013,07,29,08,57,15.20
2013,07,29,08,58,15.20
2013,07,29,08,59,15.30
2013,07,29,09,00,15.30
2013,07,29,09,01,15.40
2013,07,29,09,02,15.50
2013,07,29,09,03,15.50
2013,07,29,09,04,15.60
2013,07,29,09,05,15.70
2013,07,29,09,06,15.60
2013,07,29,09,07,15.50
2013,07,29,09,08,15.30
2013,07,29,09,09,15.10
2013,07,29,09,10,15.10
2013,07,29,09,11,15.00
2013,07,29,09,12,15.00
2013,07,29,09,13,15.00
2013,07,29,09,14,14.90
2013,07,29,09,15,14.80
2013,07,29,09,16,14.70
2013,07,29,09,17,14.70
2013,07,29,09,18,14.70
2013,07,29,09,19,14.70
2013,07,29,09,20,14.70
2013,07,29,09,21,14.70
2013,07,29,09,22,14.80
2013,07,29,09,23,14.80
2013,07,29,09,24,14.80
2013,07,29,09,25,14.80
2013,07,29,09,26,14.80
2013,07,29,09,27,14.80
2013,07,29,09,28,14.80
2013,07,29,09,29,14.60
2013,07,29,09,30,14.60
2013,07,29,09,31,14.60
2013,07,29,09,32,14.70
2013,07,29,09,33,14.70
2013,07,29,09,34,14.60
2013,07,29,09,35,14.50
2013,07,29,09,36,14.50
2013,07,29,09,37,14.40
2013,07,29,09,38,14.50
2013,07,29,09,39,14.50
2013,07,29,09,40,14.60
2013,07,29,09,41,14.60
2013,07,29,09,42,14.50
2013,07,29,09,43,14.60
2013,07,29,09,44,14.60
2013,07,29,09,45,14.60
2013,07,29,09,46,14.50
2013,07,29,09,47,14.50
2013,07,29,09,48,14.50
2013,07,29,09,49,14.50
2013,07,29,09,50,14.50
2013,07,29,09,51,14.50
2013,07,29,09,52,14.40
2013,07,29,09,53,14.50
2013,07,29,09,54,14.50
2013,07,29,09,55,14.50
2013,07,29,09,56,14.50
2013,07,29,09,57,14.50
2013,07,29,09,58,14.40
2013,07,29,09,59,14.30
2013,07,29,10,00,14.30
2013,07,29,10,01,14.30
2013,07,29,10,02,14.20
2013,07,29,10,03,14.20
2013,07,29,10,04,14.20
2013,07,29,10,05,14.20
2013,07,29,10,06,14.30
2013,07,29,10,07,14.40
2013,07,29,10,08,14.40
2013,07,29,10,09,14.40
2013,07,29,10,10,14.40
2013,07,29,10,11,14.50
2013,07,29,10,12,14.50
2013,07,29,10,13,14.70
2013,07,29,10,14,14.80
2013,07,29,10,15,15.00
2013,07,29,10,16,15.00
2013,07,29,10,17,15.00
2013,07,29,10,18,15.00
2013,07,29,10,19,15.00
2013,07,29,10,20,15.00
2013,07,29,10,21,14.90
2013,07,29,10,22,14.90
2013,07,29,10,23,15.00
2013,07,29,10,24,15.10
2013,07,29,10,25,15.10
2013,07,29,10,26,15.00
2013,07,29,10,27,14.90
2013,07,29,10,28,14.90
2013,07,29,10,29,15.00
2013,07,29,10,30,15.00
2013,07,29,10,31,15.10
2013,07,29,10,32,15.20
2013,07,29,10,33,15.20
2013,07,29,10,34,15.20
2013,07,29,10,35,15.10
2013,07,29,10,36,15.00
2013,07,29,10,37,14.90
2013,07,29,10,38,14.80
2013,07,29,10,39,14.80
2013,07,29,10,40,14.80
2013,07,29,10,41,14.80
2013,07,29,10,42,14.80
2013,07,29,10,43,14.80
2013,07,29,10,44,14.80
2013,07,29,10,45,14.80
2013,07,29,10,46,14.70
2013,07,29,10,47,14.70
2013,07,29,10,48,14.50
2013,07,29,10,49,14.50
2013,07,29,10,50,14.40
2013,07,29,10,51,14.30
2013,07,29,10,52,14.30
2013,07,29,10,53,14.20
2013,07,29,10,54,14.20
2013,07,29,10,55,14.20
2013,07,29,10,56,14.20
2013,07,29,10,57,14.20
2013,07,29,10,58,14.20
2013,07,29,10,59,14.20
2013,07,29,11,00,14.20
2013,07,29,11,01,14.20
2013,07,29,11,02,14.20
2013,07,29,11,03,14.40
2013,07,29,11,04,14.50
2013,07,29,11,05,14.50
2013,07,29,11,06,14.50
2013,07,29,11,07,14.60
2013,07,29,11,08,14.60
2013,07,29,11,09,14.60
2013,07,29,11,10,14.50
2013,07,29,11,11,14.50
2013,07,29,11,12,14.50
2013,07,29,11,13,14.50
2013,07,29,11,14,14.50
2013,07,29,11,15,14.60
2013,07,29,11,16,14.60
2013,07,29,11,17,14.60
2013,07,29,11,18,14.70
2013,07,29,11,19,14.80
2013,07,29,11,20,14.80
2013,07,29,11,21,14.90
2013,07,29,11,22,14.90
2013,07,29,11,23,15.00
2013,07,29,11,24,15.00
2013,07,29,11,25,15.00
2013,07,29,11,26,15.00
2013,07,29,11,27,15.00
2013,07,29,11,28,15.00
2013,07,29,11,29,15.10
2013,07,29,11,30,15.20
2013,07,29,11,31,15.30
2013,07,29,11,32,15.30
2013,07,29,11,33,15.20
2013,07,29,11,34,15.10
2013,07,29,11,35,15.10
2013,07,29,11,36,15.10
2013,07,29,11,37,15.10
2013,07,29,11,38,15.20
2013,07,29,11,39,15.30
2013,07,29,11,40,15.30
2013,07,29,11,41,15.30
2013,07,29,11,42,15.30
2013,07,29,11,43,15.40
2013,07,29,11,44,15.40
2013,07,29,11,45,15.40
2013,07,29,11,46,15.30
2013,07,29,11,47,15.30
2013,07,29,11,48,15.30
2013,07,29,11,49,15.30
2013,07,29,11,50,15.10
2013,07,29,11,51,15.10
2013,07,29,11,52,15.10
2013,07,29,11,53,15.00
2013,07,29,11,54,15.00
2013,07,29,11,55,15.00
2013,07,29,11,56,15.10
2013,07,29,11,57,15.10
2013,07,29,11,58,15.00
2013,07,29,11,59,14.90
2013,07,29,12,00,14.90
2013,07,29,12,01,14.90
2013,07,29,12,02,15.00
2013,07,29,12,03,15.00
2013,07,29,12,04,15.00
2013,07,29,12,05,15.00
2013,07,29,12,06,14.90
2013,07,29,12,07,14.80
2013,07,29,12,08,14.80
2013,07,29,12,09,14.60
2013,07,29,12,10,14.60
2013,07,29,12,11,14.50
2013,07,29,12,12,14.50
2013,07,29,12,13,14.50
2013,07,29,12,14,14.40
2013,07,29,12,15,14.50
2013,07,29,12,16,14.60
2013,07,29,12,17,14.60
2013,07,29,12,18,14.60
2013,07,29,12,19,14.50
2013,07,29,12,20,14.30
2013,07,29,12,21,14.20
2013,07,29,12,22,14.20
2013,07,29,12,23,14.20
2013,07,29,12,24,14.10
2013,07,29,12,25,14.00
2013,07,29,12,26,14.00
2013,07,29,12,27,14.00
2013,07,29,12,28,14.00
2013,07,29,12,29,14.10
2013,07,29,12,30,14.00
2013,07,29,12,31,14.10
2013,07,29,12,32,14.20
2013,07,29,12,33,14.20
2013,07,29,12,34,14.20
2013,07,29,12,35,14.10
2013,07,29,12,36,14.00
2013,07,29,12,37,14.00
2013,07,29,12,38,14.00
2013,07,29,12,39,14.10
2013,07,29,12,40,14.20
2013,07,29,12,41,14.20
2013,07,29,12,42,14.20
2013,07,29,12,43,14.20
2013,07,29,12,44,14.20
2013,07,29,12,45,14.30
2013,07,29,12,46,14.40
2013,07,29,12,47,14.40
2013,07,29,12,48,14.40
2013,07,29,12,49,14.40
2013,07,29,12,50,14.40
2013,07,29,12,51,14.30
2013,07,29,12,52,14.20
2013,07,29,12,53,14.20
2013,07,29,12,54,14.20
2013,07,29,12,55,14.30
2013,07,29,12,56,14.30
2013,07,29,12,57,14.40
2013,07,29,12,58,14.50
2013,07,29,12,59,14.60
2013,07,29,13,00,14.70
2013,07,29,13,01,14.70
2013,07,29,13,02,14.80
2013,07,29,13,03,14.90
2013,07,29,13,04,14.90
2013,07,29,13,05,15.00
2013,07,29,13,06,14.90
2013,07,29,13,07,14.90
2013,07,29,13,08,14.90
2013,07,29,13,09,14.90
2013,07,29,13,10,14.90
2013,07,29,13,11,14.90
2013,07,29,13,12,14.90
2013,07,29,13,13,14.90
2013,07,29,13,14,14.80
2013,07,29,13,15,14.70
2013,07,29,13,16,14.60
2013,07,29,13,17,14.70
2013,07,29,13,18,14.70
2013,07,29,13,19,14.70
2013,07,29,13,20,14.80
2013,07,29,13,21,14.90
2013,07,29,13,22,15.00
2013,07,29,13,23,15.10
2013,07,29,13,24,15.20
2013,07,29,13,25,15.30
2013,07,29,13,26,15.30
2013,07,29,13,27,15.30
2013,07,29,13,28,15.20
2013,07,29,13,29,15.10
2013,07,29,13,30,15.10
2013,07,29,13,31,15.20
2013,07,29,13,32,15.20
2013,07,29,13,33,15.20
2013,07,29,13,34,15.20
2013,07,29,13,35,15.20
2013,07,29,13,36,15.30
2013,07,29,13,37,15.30
2013,07,29,13,38,15.30
2013,07,29,13,39,15.30
2013,07,29,13,40,15.30
2013,07,29,13,41,15.30
2013,07,29,13,42,15.30
2013,07,29,13,43,15.30
2013,07,29,13,44,15.30
2013,07,29,13,45,15.30
2013,07,29,13,46,15.30
2013,07,29,13,47,15.30
2013,07,29,13,48,15.40
2013,07,29,13,49,15.60
2013,07,29,13,50,15.60
2013,07,29,13,51,15.80
2013,07,29,13,52,15.80
2013,07,29,13,53,15.90
2013,07,29,13,54,16.10
2013,07,29,13,55,16.20
2013,07,29,13,56,16.20
2013,07,29,13,57,16.20
2013,07,29,13,58,16.30
2013,07,29,13,59,16.40
2013,07,29,14,00,16.40
2013,07,29,14,01,16.50
2013,07,29,14,02,16.60
2013,07,29,14,03,16.60
2013,07,29,14,04,16.60
2013,07,29,14,05,16.70
2013,07,29,14,06,16.70
2013,07,29,14,07,16.70
2013,07,29,14,08,16.70
2013,07,29,14,09,16.70
2013,07,29,14,10,16.70
2013,07,29,14,11,16.70
2013,07,29,14,12,16.70
2013,07,29,14,13,16.60
2013,07,29,14,14,16.60
2013,07,29,14,15,16.70
2013,07,29,14,16,16.70
2013,07,29,14,17,16.70
2013,07,29,14,18,16.70
2013,07,29,14,19,16.70
2013,07,29,14,20,16.60
2013,07,29,14,21,16.60
2013,07,29,14,22,16.60
2013,07,29,14,23,16.60
2013,07,29,14,24,16.70
2013,07,29,14,25,16.70
2013,07,29,14,26,16.60
2013,07,29,14,27,16.60
2013,07,29,14,28,16.70
2013,07,29,14,29,16.70
2013,07,29,14,30,16.90
2013,07,29,14,31,16.90
2013,07,29,14,32,17.00
2013,07,29,14,33,17.00
2013,07,29,14,34,17.10
2013,07,29,14,35,17.20
2013,07,29,14,36,17.30
2013,07,29,14,37,17.30
2013,07,29,14,38,17.40
2013,07,29,14,39,17.60
2013,07,29,14,40,17.80
2013,07,29,14,41,17.90
2013,07,29,14,42,18.00
2013,07,29,14,43,18.10
2013,07,29,14,44,18.10
2013,07,29,14,45,18.10
2013,07,29,14,46,18.10
2013,07,29,14,47,18.10
2013,07,29,14,48,18.20
2013,07,29,14,49,18.20
2013,07,29,14,50,18.20
2013,07,29,14,51,18.20
2013,07,29,14,52,18.30
2013,07,29,14,53,18.30
2013,07,29,14,54,18.40
2013,07,29,14,55,18.50
2013,07,29,14,56,18.60
2013,07,29,14,57,18.80
2013,07,29,14,58,18.90
2013,07,29,14,59,18.90
2013,07,29,15,00,18.90
2013,07,29,15,01,19.00
2013,07,29,15,02,19.10
2013,07,29,15,03,19.10
2013,07,29,15,04,19.10
2013,07,29,15,05,19.20
2013,07,29,15,06,19.40
2013,07,29,15,07,19.40
2013,07,29,15,08,19.60
2013,07,29,15,09,19.70
2013,07,29,15,10,19.90
2013,07,29,15,11,19.90
2013,07,29,15,12,19.90
2013,07,29,15,13,19.90
2013,07,29,15,14,19.90
2013,07,29,15,15,19.90
2013,07,29,15,16,20.00
2013,07,29,15,17,20.10
2013,07,29,15,18,20.20
2013,07,29,15,19,20.30
2013,07,29,15,20,20.40
2013,07,29,15,21,20.50
2013,07,29,15,22,20.70
2013,07,29,15,23,20.80
2013,07,29,15,24,20.90
2013,07,29,15,25,20.90
2013,07,29,15,26,21.00
2013,07,29,15,27,21.00
2013,07,29,15,28,21.00
2013,07,29,15,29,21.00
2013,07,29,15,30,20.90
2013,07,29,15,31,20.80
2013,07,29,15,32,20.80
2013,07,29,15,33,20.80
2013,07,29,15,34,20.70
2013,07,29,15,35,20.70
2013,07,29,15,36,20.50
2013,07,29,15,37,20.30
2013,07,29,15,38,20.20
2013,07,29,15,39,20.10
2013,07,29,15,40,19.90
2013,07,29,15,41,19.90
2013,07,29,15,42,19.90
2013,07,29,15,43,19.70
2013,07,29,15,44,19.50
2013,07,29,15,45,19.40
2013,07,29,15,46,19.20
2013,07,29,15,47,19.10
2013,07,29,15,48,19.10
2013,07,29,15,49,19.10
2013,07,29,15,50,19.20
2013,07,29,15,51,19.20
2013,07,29,15,52,19.20
2013,07,29,15,53,19.10
2013,07,29,15,54,19.10
2013,07,29,15,55,19.00
2013,07,29,15,56,18.90
2013,07,29,15,57,18.90
2013,07,29,15,58,19.00
2013,07,29,15,59,19.10
2013,07,29,16,00,19.10
2013,07,29,16,01,19.30
2013,07,29,16,02,19.50
2013,07,29,16,03,19.60
2013,07,29,16,04,19.70
2013,07,29,16,05,19.70
2013,07,29,16,06,19.70
2013,07,29,16,07,19.70
2013,07,29,16,08,19.70
2013,07,29,16,09,19.70
2013,07,29,16,10,19.70
2013,07,29,16,11,19.60
2013,07,29,16,12,19.50
2013,07,29,16,13,19.50
2013,07,29,16,14,19.60
2013,07,29,16,15,19.60
2013,07,29,16,16,19.60
2013,07,29,16,17,19.70
2013,07,29,16,18,19.70
2013,07,29,16,19,19.70
2013,07,29,16,20,19.70
2013,07,29,16,21,19.80
2013,07,29,16,22,19.70
2013,07,29,16,23,19.70
2013,07,29,16,24,19.70
2013,07,29,16,25,19.70
2013,07,29,16,26,19.80
2013,07,29,16,27,19.80
2013,07,29,16,28,19.80
2013,07,29,16,29,19.80
2013,07,29,16,30,19.90
2013,07,29,16,31,19.90
2013,07,29,16,32,19.90
2013,07,29,16,33,20.00
2013,07,29,16,34,20.10
2013,07,29,16,35,20.20
2013,07,29,16,36,20.30
2013,07,29,16,37,20.40
2013,07,29,16,38,20.50
2013,07,29,16,39,20.60
2013,07,29,16,40,20.70
2013,07,29,16,41,20.80
2013,07,29,16,42,20.70
2013,07,29,16,43,20.80
2013,07,29,16,44,20.80
2013,07,29,16,45,20.80
2013,07,29,16,46,20.80
2013,07,29,16,47,20.90
2013,07,29,16,48,20.90
2013,07,29,16,49,20.90
2013,07,29,16,50,20.80
2013,07,29,16,51,20.80
2013,07,29,16,52,20.80
2013,07,29,16,53,20.70
2013,07,29,16,54,20.80
2013,07,29,16,55,20.80
2013,07,29,16,56,20.80
2013,07,29,16,57,20.90
2013,07,29,16,58,21.00
2013,07,29,16,59,21.10
2013,07,29,17,00,21.10
2013,07,29,17,01,21.00
2013,07,29,17,02,21.00
2013,07,29,17,03,21.00
2013,07,29,17,04,21.10
2013,07,29,17,05,21.10
2013,07,29,17,06,21.20
2013,07,29,17,07,21.20
2013,07,29,17,08,21.30
2013,07,29,17,09,21.30
2013,07,29,17,10,21.30
2013,07,29,17,11,21.30
2013,07,29,17,12,21.30
2013,07,29,17,13,21.30
2013,07,29,17,14,21.30
2013,07,29,17,15,21.30
2013,07,29,17,16,21.30
2013,07,29,17,17,21.30
2013,07,29,17,18,21.30
2013,07,29,17,19,21.40
2013,07,29,17,20,21.40
2013,07,29,17,21,21.50
2013,07,29,17,22,21.60
2013,07,29,17,23,21.60
2013,07,29,17,24,21.50
2013,07,29,17,25,21.50